Hartford, CT

2:59 PM EST on December 05, 2019 (GMT -0500)
Hartford-brainard

Weather History for KHFD - November, 2019

Change the Weather History Date:

Saturday, November 16, 2019

  Actual Average Record
Temperature  
Mean Temperature 32 °F -  
Max Temperature 39 °F 49 °F 77 °F (1993)
Min Temperature 26 °F 31 °F 14 °F (1933)
Degree Days  
Heating Degree Days 32    
Moisture  
Dew Point 6 °F    
Average Humidity 34    
Maximum Humidity 55    
Minimum Humidity 23    
Precipitation  
Precipitation 0.00 in - - ()
Sea Level Pressure  
Sea Level Pressure 30.44 in    
Wind  
Wind Speed 10 mph ()    
Max Wind Speed 16 mph    
Max Gust Speed 25 mph    
Visibility 10.0 miles    
Events      
Averages and records for this station are not official NWS values.
T = Trace of Precipitation, MM = Missing Value Source: Averaged Metar Reports

Daily Weather History Graph

Daily Weather History Graph

Search for Another Location

Airport or City:

Astronomy

Nov. 16, 2019 Rise Set
Actual Time 6:40 AM EST 4:29 PM EST
Civil Twilight 6:10 AM EST 4:59 PM EST
Nautical Twilight 5:37 AM EST 5:33 PM EST
Astronomical Twilight 5:04 AM EST 6:05 PM EST
Moon 7:57 PM EST (11/16) 10:33 AM EST (11/16)
Length of Visible Light 10h 48m
Length of Day
9h 48m
Waning Gibbous, 82% of the Moon is Illuminated
Nov 16
Waning Gibbous
Nov 19
Last Quarter
Nov 26
New
Dec 4
First Quarter
Dec 12
Full

Hourly Weather History & Observations

Time (EST) Temp. Windchill Dew Point Humidity Pressure Visibility Wind Dir Wind Speed Gust Speed Precip Events Conditions
12:53 AM 39.9 °F 33.4 °F 25.0 °F 55% 30.24 in 10.0 mi NNW 10.4 mph - N/A   Mostly Cloudy
1:53 AM 39.9 °F 32.9 °F 23.0 °F 51% 30.26 in 10.0 mi NNW 11.5 mph 23.0 mph N/A   Mostly Cloudy
2:53 AM 37.0 °F 28.1 °F 17.1 °F 44% 30.30 in 10.0 mi NNW 15.0 mph 24.2 mph N/A   Clear
3:53 AM 33.1 °F 22.6 °F 17.1 °F 52% 30.33 in 10.0 mi North 16.1 mph 21.9 mph N/A   Clear
4:53 AM 30.9 °F 20.2 °F 3.0 °F 31% 30.38 in 10.0 mi North 15.0 mph 25.3 mph N/A   Clear
5:53 AM 28.9 °F 18.2 °F 3.0 °F 33% 30.42 in 10.0 mi North 13.8 mph 19.6 mph N/A   Clear
6:53 AM 28.0 °F 18.1 °F 1.9 °F 33% 30.47 in 10.0 mi North 11.5 mph - N/A   Clear
7:53 AM 28.9 °F 18.6 °F 1.0 °F 30% 30.50 in 10.0 mi North 12.7 mph 24.2 mph N/A   Clear
8:53 AM 30.0 °F 18.7 °F 1.0 °F 29% 30.51 in 10.0 mi North 16.1 mph 23.0 mph N/A   Clear
9:53 AM 32.0 °F 23.0 °F 3.0 °F 29% 30.51 in 10.0 mi North 11.5 mph 19.6 mph N/A   Clear
10:53 AM 33.1 °F 24.4 °F 3.9 °F 29% 30.51 in 10.0 mi North 11.5 mph - N/A   Clear
11:53 AM 36.0 °F 28.0 °F 3.9 °F 26% 30.49 in 10.0 mi North 11.5 mph - N/A   Clear
12:53 PM 37.0 °F 29.3 °F 3.9 °F 25% 30.47 in 10.0 mi North 11.5 mph - N/A   Clear
1:53 PM 37.9 °F 30.9 °F 3.0 °F 23% 30.46 in 10.0 mi North 10.4 mph 18.4 mph N/A   Clear
2:53 PM 37.0 °F 30.4 °F 3.0 °F 24% 30.45 in 10.0 mi North 9.2 mph - N/A   Clear
3:53 PM 36.0 °F 28.5 °F 1.0 °F 23% 30.47 in 10.0 mi NNW 10.4 mph - N/A   Clear
5:53 PM 32.0 °F 23.6 °F -0.0 °F 26% 30.48 in 10.0 mi North 10.4 mph - N/A   Clear
6:53 PM 28.9 °F 21.9 °F 1.0 °F 30% 30.50 in 10.0 mi NNE 6.9 mph - N/A   Clear
8:53 PM 27.0 °F 18.0 °F 3.9 °F 37% 30.51 in 10.0 mi NNE 9.2 mph - N/A   Clear
9:53 PM 27.0 °F 18.0 °F 3.0 °F 36% 30.51 in 10.0 mi North 9.2 mph - N/A   Clear
10:53 PM 26.1 °F 16.8 °F 3.9 °F 39% 30.49 in 10.0 mi NNE 9.2 mph - N/A   Clear
11:53 PM 26.1 °F 16.8 °F 1.9 °F 35% 30.49 in 10.0 mi North 9.2 mph - N/A   Clear